QPF
0.02 0.01 0.00 0.00 0.00 0.01 0.01 0.01 0.02 0.02 0.02 0.01 0.00 0.01 0.01 0.01 0.01 0.01 0.02 0.02 0.02 0.01 0.01 0.01 0.01 0.01 0.01 0.00 0.00 0.00 0.00 0.01 0.01 0.01 0.01 0.01 0.01 0.01 0.02 0.02 0.03 0.03 0.02
0.01 0.01 0.00 0.00 0.00 0.00 0.00 0.01 0.01 0.01 0.01 0.01 0.01 0.01 0.01 0.00 0.01 0.00 0.01 0.01 0.01 0.01 0.00 0.01 0.00 0.00 0.00 0.00 0.01 0.01 0.00 0.00 0.01 0.02 0.02 0.02 0.01 0.00 0.00 0.01 0.02 0.03 0.02
0.00 0.00 0.00 0.00 0.00 0.00 0.00 0.00 0.00 0.01 0.01 0.01 0.01 0.01 0.00 0.00 0.00 0.00 0.00 0.00 0.00 0.00 0.00 0.00 0.00 0.00 0.01 0.00 0.01 0.01 0.00 0.00 0.00 0.02 0.02 0.02 0.01 0.00 0.00 0.00 0.00 0.01 0.01
0.00 0.00 0.00 0.00 0.01 0.00 0.00 0.00 0.00 0.01 0.01 0.01 0.01 0.01 0.01 0.00 0.00 0.01 0.01 0.00 0.00 0.00 0.00 0.00 0.00 0.00 0.01 0.01 0.01 0.01 0.00 0.00 0.00 0.01 0.01 0.01 0.01 0.01 0.00 0.01 0.00 0.01 0.00
0.01 0.01 0.00 0.00 0.00 0.00 0.00 0.00 0.01 0.01 0.00 0.00 0.01 0.01 0.00 0.00 0.00 0.00 0.00 0.00 0.00 0.01 0.00 0.00 0.00 0.00 0.00 0.00 0.00 0.01 0.01 0.00 0.00 0.00 0.00 0.00 0.01 0.01 0.00 0.01 0.01 0.01 0.01
0.01 0.00 0.00 0.00 0.00 0.00 0.00 0.00 0.00 0.00 0.00 0.00 0.00 0.00 0.00 0.00 0.01 0.00 0.00 0.00 0.01 0.01 0.01 0.01 0.01 0.01 0.00 0.00 0.00 0.00 0.00 0.00 0.00 0.00 0.00 0.00 0.00 0.01 0.01 0.01 0.00 0.01 0.01
0.01 0.00 0.00 0.00 0.01 0.01 0.01 0.00 0.00 0.00 0.00 0.00 0.00 0.00 0.00 0.00 0.01 0.01 0.01 0.01 0.01 0.01 0.01 0.01 0.01 0.00 0.00 0.00 0.00 0.00 0.00 0.00 0.00 0.00 0.00 0.00 0.00 0.01 0.01 0.01 0.00 0.00 0.00
0.01 0.00 0.00 0.00 0.01 0.01 0.01 0.01 0.01 0.00 0.00 0.00 0.00 0.00 0.01 0.00 0.00 0.00 0.00 0.00 0.00 0.00 0.00 0.00 0.00 0.00 0.00 0.00 0.00 0.00 0.00 0.00 0.00 0.00 0.00 0.00 0.00 0.00 0.01 0.01 0.01 0.01 0.00
0.01 0.01 0.00 0.01 0.01 0.01 0.01 0.01 0.00 0.00 0.00 0.00 0.00 0.00 0.00 0.00 0.00 0.00 0.00 0.00 0.00 0.00 0.00 0.00 0.00 0.00 0.00 0.00 0.00 0.01 0.01 0.01 0.00 0.00 0.00 0.00 0.00 0.00 0.01 0.00 0.00 0.00 0.01
0.00 0.00 0.00 0.01 0.01 0.00 0.00 0.01 0.01 0.00 0.00 0.00 0.00 0.00 0.00 0.01 0.01 0.00 0.00 0.00 0.00 0.00 0.00 0.00 0.00 0.00 0.00 0.00 0.00 0.00 0.00 0.01 0.00 0.00 0.00 0.00 0.00 0.01 0.01 0.01 0.00 0.01 0.01
0.01 0.01 0.01 0.01 0.01 0.00 0.00 0.00 0.01 0.01 0.00 0.00 0.00 0.00 0.00 0.01 0.01 0.00 0.00 0.00 0.01 0.01 0.01 0.00 0.00 0.01 0.00 0.00 0.00 0.00 0.00 0.00 0.00 0.00 0.00 0.01 0.00 0.01 0.01 0.01 0.01 0.01 0.01
0.01 0.01 0.01 0.01 0.01 0.01 0.00 0.00 0.01 0.01 0.01 0.01 0.01 0.01 0.01 0.01 0.01 0.01 0.00 0.00 0.00 0.01 0.01 0.01 0.01 0.00 0.00 0.00 0.00 0.00 0.00 0.00 0.00 0.00 0.00 0.01 0.01 0.01 0.01 0.01 0.01 0.01 0.01
0.01 0.01 0.02 0.03 0.02 0.01 0.01 0.01 0.01 0.01 0.02 0.02 0.02 0.01 0.01 0.00 0.01 0.02 0.01 0.01 0.01 0.01 0.01 0.01 0.01 0.00 0.00 0.00 0.00 0.00 0.00 0.00 0.00 0.00 0.01 0.01 0.01 0.01 0.01 0.01 0.01 0.01 0.01
0.01 0.01 0.02 0.03 0.03 0.02 0.01 0.01 0.01 0.01 0.01 0.02 0.02 0.01 0.01 0.01 0.01 0.01 0.01 0.01 0.02 0.02 0.01 0.01 0.00 0.00 0.00 0.00 0.00 0.00 0.00 0.00 0.01 0.01 0.01 0.01 0.01 0.01 0.02 0.01 0.01 0.02 0.01
0.02 0.02 0.02 0.02 0.03 0.03 0.02 0.01 0.01 0.01 0.01 0.01 0.01 0.01 0.01 0.01 0.01 0.01 0.01 0.01 0.01 0.01 0.01 0.01 0.00 0.00 0.00 0.00 0.00 0.00 0.01 0.01 0.01 0.01 0.01 0.01 0.01 0.01 0.01 0.01 0.01 0.02 0.02
0.04 0.03 0.02 0.02 0.02 0.02 0.02 0.01 0.01 0.01 0.01 0.01 0.01 0.01 0.01 0.01 0.02 0.01 0.01 0.01 0.01 0.01 0.01 0.00 0.00 0.01 0.01 0.01 0.01 0.01 0.01 0.01 0.01 0.01 0.01 0.01 0.01 0.01 0.02 0.02 0.02 0.02 0.02
0.02 0.02 0.02 0.02 0.02 0.01 0.01 0.01 0.01 0.01 0.01 0.01 0.01 0.01 0.00 0.00 0.00 0.01 0.01 0.01 0.00 0.00 0.00 0.01 0.00 0.00 0.01 0.01 0.01 0.01 0.02 0.02 0.02 0.02 0.02 0.02 0.02 0.02 0.02 0.02 0.02 0.02 0.02
0.01 0.01 0.01 0.02 0.02 0.01 0.01 0.01 0.01 0.01 0.01 0.01 0.01 0.01 0.01 0.00 0.00 0.01 0.00 0.00 0.00 0.00 0.00 0.00 0.00 0.00 0.00 0.01 0.01 0.01 0.01 0.01 0.01 0.02 0.02 0.02 0.02 0.02 0.02 0.02 0.02 0.02 0.02
0.00 0.00 0.01 0.01 0.02 0.02 0.01 0.01 0.01 0.01 0.01 0.01 0.01 0.01 0.01 0.01 0.01 0.00 0.00 0.00 0.00 0.00 0.00 0.00 0.00 0.00 0.00 0.00 0.00 0.00 0.01 0.01 0.01 0.01 0.02 0.02 0.03 0.03 0.03 0.03 0.03 0.03 0.03
0.01 0.01 0.01 0.01 0.01 0.01 0.01 0.01 0.01 0.01 0.01 0.01 0.01 0.01 0.01 0.01 0.00 0.00 0.00 0.00 0.00 0.00 0.00 0.00 0.01 0.01 0.00 0.00 0.01 0.01 0.01 0.01 0.01 0.01 0.02 0.02 0.03 0.03 0.04 0.04 0.04 0.04 0.03
0.01 0.01 0.01 0.01 0.01 0.01 0.01 0.01 0.01 0.01 0.01 0.01 0.01 0.01 0.01 0.01 0.01 0.01 0.01 0.01 0.00 0.00 0.00 0.00 0.00 0.00 0.00 0.01 0.01 0.01 0.01 0.01 0.01 0.02 0.02 0.02 0.02 0.03 0.03 0.03 0.03 0.03 0.02
0.01 0.00 0.00 0.00 0.01 0.01 0.01 0.01 0.01 0.01 0.01 0.01 0.01 0.01 0.02 0.01 0.01 0.01 0.01 0.01 0.01 0.01 0.01 0.01 0.01 0.01 0.01 0.01 0.01 0.01 0.01 0.01 0.01 0.02 0.02 0.02 0.02 0.02 0.02 0.03 0.02 0.03 0.02
0.01 0.00 0.01 0.00 0.01 0.01 0.01 0.01 0.01 0.01 0.01 0.01 0.01 0.01 0.01 0.01 0.01 0.01 0.01 0.01 0.01 0.01 0.01 0.01 0.01 0.01 0.01 0.01 0.01 0.01 0.01 0.01 0.01 0.02 0.02 0.02 0.02 0.02 0.02 0.02 0.02 0.02 0.02
0.01 0.01 0.01 0.01 0.01 0.01 0.01 0.01 0.01 0.01 0.01 0.01 0.01 0.01 0.01 0.01 0.01 0.01 0.01 0.01 0.01 0.01 0.01 0.01 0.01 0.01 0.01 0.01 0.01 0.01 0.01 0.01 0.01 0.01 0.02 0.02 0.03 0.03 0.03 0.03 0.02 0.02 0.02
0.01 0.00 0.01 0.01 0.01 0.01 0.01 0.01 0.01 0.01 0.01 0.01 0.01 0.00 0.01 0.01 0.01 0.01 0.01 0.01 0.01 0.01 0.01 0.01 0.01 0.01 0.01 0.01 0.01 0.01 0.02 0.02 0.01 0.01 0.01 0.02 0.03 0.03 0.03 0.03 0.03 0.02 0.02
0.01 0.01 0.01 0.01 0.01 0.01 0.01 0.01 0.01 0.01 0.01 0.01 0.00 0.00 0.00 0.00 0.00 0.00 0.01 0.01 0.01 0.01 0.01 0.01 0.01 0.01 0.01 0.01 0.01 0.01 0.02 0.02 0.02 0.02 0.02 0.02 0.03 0.03 0.03 0.03 0.03 0.03 0.03
MSLP
1016.95 1017.42 1017.88 1018.28 1018.61 1018.85 1019.03 1019.18 1019.33 1019.53 1019.78 1020.10 1020.48 1020.89 1021.29 1021.65 1021.96 1022.19 1022.36 1022.47 1022.55 1022.61 1022.69 1022.77 1022.87 1022.97 1023.07 1023.16 1023.23 1023.31 1023.39 1023.48 1023.60 1023.75 1023.92 1024.08 1024.22 1024.31 1024.33 1024.27 1024.14 1023.95 1023.73
1016.87 1017.37 1017.84 1018.24 1018.57 1018.83 1019.02 1019.19 1019.38 1019.61 1019.90 1020.26 1020.67 1021.11 1021.54 1021.93 1022.26 1022.51 1022.70 1022.83 1022.93 1023.01 1023.10 1023.20 1023.30 1023.40 1023.50 1023.59 1023.66 1023.72 1023.78 1023.85 1023.95 1024.07 1024.20 1024.33 1024.43 1024.48 1024.47 1024.38 1024.21 1023.98 1023.71
1016.69 1017.23 1017.73 1018.17 1018.54 1018.82 1019.06 1019.27 1019.50 1019.77 1020.10 1020.49 1020.93 1021.38 1021.82 1022.22 1022.55 1022.81 1023.01 1023.15 1023.26 1023.36 1023.47 1023.59 1023.72 1023.84 1023.96 1024.06 1024.15 1024.22 1024.28 1024.34 1024.42 1024.51 1024.61 1024.70 1024.76 1024.77 1024.71 1024.58 1024.37 1024.10 1023.79
1016.39 1017.00 1017.56 1018.07 1018.50 1018.85 1019.15 1019.43 1019.72 1020.03 1020.40 1020.81 1021.26 1021.72 1022.15 1022.53 1022.85 1023.10 1023.29 1023.44 1023.56 1023.67 1023.80 1023.94 1024.10 1024.25 1024.40 1024.54 1024.65 1024.73 1024.80 1024.86 1024.92 1024.99 1025.05 1025.10 1025.12 1025.08 1024.99 1024.82 1024.58 1024.28 1023.94
1016.00 1016.69 1017.34 1017.94 1018.46 1018.90 1019.29 1019.64 1020.00 1020.36 1020.76 1021.19 1021.64 1022.08 1022.49 1022.85 1023.15 1023.38 1023.56 1023.70 1023.82 1023.94 1024.09 1024.25 1024.43 1024.62 1024.80 1024.96 1025.09 1025.19 1025.27 1025.32 1025.36 1025.40 1025.43 1025.43 1025.41 1025.35 1025.22 1025.04 1024.79 1024.49 1024.15
1015.53 1016.31 1017.06 1017.76 1018.38 1018.93 1019.42 1019.86 1020.28 1020.70 1021.13 1021.57 1022.01 1022.43 1022.81 1023.15 1023.42 1023.63 1023.79 1023.92 1024.05 1024.18 1024.34 1024.52 1024.72 1024.92 1025.12 1025.29 1025.43 1025.53 1025.60 1025.64 1025.66 1025.67 1025.66 1025.63 1025.58 1025.49 1025.36 1025.18 1024.95 1024.67 1024.35
1015.00 1015.86 1016.71 1017.52 1018.25 1018.91 1019.49 1020.02 1020.51 1020.97 1021.42 1021.86 1022.29 1022.69 1023.05 1023.36 1023.61 1023.82 1023.98 1024.12 1024.25 1024.39 1024.56 1024.75 1024.95 1025.16 1025.36 1025.52 1025.65 1025.74 1025.79 1025.80 1025.79 1025.76 1025.72 1025.66 1025.60 1025.50 1025.38 1025.23 1025.03 1024.80 1024.54
1014.43 1015.36 1016.29 1017.20 1018.04 1018.80 1019.47 1020.06 1020.60 1021.10 1021.56 1022.01 1022.43 1022.81 1023.16 1023.46 1023.71 1023.92 1024.10 1024.26 1024.42 1024.58 1024.76 1024.95 1025.15 1025.35 1025.52 1025.67 1025.77 1025.82 1025.83 1025.81 1025.76 1025.70 1025.63 1025.56 1025.48 1025.40 1025.30 1025.19 1025.05 1024.88 1024.69
1013.83 1014.82 1015.82 1016.81 1017.73 1018.57 1019.32 1019.97 1020.55 1021.07 1021.55 1021.99 1022.39 1022.77 1023.12 1023.43 1023.70 1023.94 1024.16 1024.36 1024.55 1024.74 1024.94 1025.14 1025.33 1025.50 1025.64 1025.75 1025.80 1025.82 1025.79 1025.72 1025.64 1025.55 1025.46 1025.38 1025.31 1025.25 1025.19 1025.12 1025.04 1024.94 1024.81
1013.23 1014.25 1015.32 1016.36 1017.36 1018.26 1019.06 1019.76 1020.36 1020.90 1021.38 1021.82 1022.22 1022.60 1022.96 1023.29 1023.60 1023.89 1024.16 1024.41 1024.65 1024.88 1025.10 1025.30 1025.48 1025.62 1025.73 1025.79 1025.80 1025.77 1025.71 1025.61 1025.51 1025.40 1025.31 1025.23 1025.17 1025.12 1025.10 1025.07 1025.04 1024.99 1024.92
1012.66 1013.70 1014.80 1015.89 1016.93 1017.89 1018.73 1019.46 1020.10 1020.65 1021.13 1021.57 1021.97 1022.36 1022.73 1023.10 1023.45 1023.80 1024.12 1024.44 1024.72 1024.99 1025.23 1025.43 1025.60 1025.72 1025.79 1025.81 1025.79 1025.73 1025.64 1025.53 1025.42 1025.31 1025.22 1025.16 1025.12 1025.09 1025.09 1025.08 1025.08 1025.06 1025.01
1012.14 1013.19 1014.31 1015.44 1016.52 1017.51 1018.39 1019.16 1019.82 1020.38 1020.87 1021.31 1021.72 1022.12 1022.52 1022.91 1023.31 1023.70 1024.08 1024.44 1024.77 1025.06 1025.31 1025.52 1025.67 1025.76 1025.81 1025.81 1025.76 1025.69 1025.60 1025.51 1025.41 1025.33 1025.26 1025.22 1025.19 1025.18 1025.18 1025.18 1025.17 1025.15 1025.09
1011.69 1012.74 1013.87 1015.03 1016.14 1017.17 1018.10 1018.90 1019.58 1020.16 1020.67 1021.12 1021.54 1021.95 1022.36 1022.78 1023.20 1023.63 1024.04 1024.43 1024.78 1025.09 1025.34 1025.53 1025.67 1025.75 1025.78 1025.77 1025.73 1025.67 1025.60 1025.54 1025.49 1025.44 1025.42 1025.40 1025.39 1025.39 1025.38 1025.36 1025.32 1025.25 1025.15
1011.32 1012.36 1013.50 1014.68 1015.83 1016.90 1017.86 1018.70 1019.42 1020.03 1020.55 1021.02 1021.45 1021.87 1022.29 1022.72 1023.16 1023.59 1024.01 1024.41 1024.76 1025.05 1025.29 1025.47 1025.59 1025.66 1025.69 1025.68 1025.67 1025.65 1025.63 1025.62 1025.63 1025.64 1025.66 1025.68 1025.69 1025.68 1025.65 1025.58 1025.49 1025.36 1025.19
1011.02 1012.05 1013.20 1014.39 1015.56 1016.67 1017.67 1018.56 1019.31 1019.96 1020.52 1021.00 1021.45 1021.87 1022.30 1022.72 1023.15 1023.58 1023.98 1024.36 1024.69 1024.96 1025.18 1025.33 1025.44 1025.50 1025.53 1025.56 1025.58 1025.61 1025.66 1025.73 1025.81 1025.89 1025.96 1026.01 1026.03 1026.01 1025.95 1025.83 1025.66 1025.45 1025.20
1010.78 1011.79 1012.92 1014.12 1015.31 1016.45 1017.49 1018.42 1019.22 1019.91 1020.49 1021.01 1021.47 1021.90 1022.32 1022.74 1023.15 1023.55 1023.93 1024.27 1024.57 1024.81 1025.00 1025.14 1025.23 1025.30 1025.36 1025.41 1025.49 1025.59 1025.71 1025.85 1026.00 1026.15 1026.27 1026.35 1026.38 1026.34 1026.24 1026.06 1025.82 1025.52 1025.18
1010.55 1011.53 1012.64 1013.83 1015.03 1016.18 1017.25 1018.22 1019.06 1019.79 1020.41 1020.96 1021.44 1021.88 1022.30 1022.71 1023.11 1023.49 1023.84 1024.15 1024.42 1024.63 1024.80 1024.93 1025.03 1025.11 1025.20 1025.30 1025.43 1025.59 1025.79 1026.00 1026.21 1026.41 1026.57 1026.67 1026.69 1026.63 1026.48 1026.25 1025.94 1025.57 1025.15
1010.29 1011.24 1012.32 1013.48 1014.67 1015.82 1016.91 1017.89 1018.77 1019.53 1020.19 1020.77 1021.28 1021.74 1022.18 1022.59 1022.98 1023.35 1023.69 1023.99 1024.24 1024.45 1024.62 1024.76 1024.88 1024.99 1025.11 1025.26 1025.45 1025.67 1025.92 1026.18 1026.44 1026.66 1026.84 1026.94 1026.95 1026.86 1026.67 1026.38 1026.01 1025.58 1025.10
1010.00 1010.89 1011.93 1013.05 1014.21 1015.35 1016.43 1017.42 1018.32 1019.11 1019.80 1020.41 1020.96 1021.45 1021.91 1022.34 1022.75 1023.13 1023.48 1023.80 1024.07 1024.30 1024.50 1024.67 1024.82 1024.98 1025.15 1025.35 1025.58 1025.84 1026.12 1026.41 1026.68 1026.91 1027.08 1027.16 1027.14 1027.01 1026.78 1026.45 1026.03 1025.56 1025.03
1009.65 1010.49 1011.47 1012.54 1013.65 1014.76 1015.82 1016.80 1017.70 1018.51 1019.24 1019.88 1020.47 1021.00 1021.51 1021.98 1022.43 1022.85 1023.24 1023.60 1023.92 1024.20 1024.45 1024.68 1024.89 1025.10 1025.32 1025.56 1025.83 1026.11 1026.40 1026.68 1026.93 1027.13 1027.26 1027.30 1027.24 1027.07 1026.80 1026.43 1025.99 1025.49 1024.94
1009.26 1010.05 1010.97 1011.99 1013.04 1014.10 1015.12 1016.08 1016.98 1017.80 1018.55 1019.23 1019.86 1020.45 1021.00 1021.54 1022.05 1022.54 1023.00 1023.42 1023.82 1024.17 1024.50 1024.80 1025.08 1025.35 1025.62 1025.89 1026.17 1026.45 1026.72 1026.97 1027.17 1027.32 1027.39 1027.37 1027.25 1027.04 1026.73 1026.33 1025.87 1025.36 1024.82
1008.85 1009.61 1010.48 1011.43 1012.42 1013.43 1014.40 1015.34 1016.22 1017.04 1017.81 1018.53 1019.20 1019.85 1020.47 1021.08 1021.66 1022.23 1022.77 1023.28 1023.76 1024.21 1024.62 1024.99 1025.34 1025.67 1025.98 1026.28 1026.55 1026.81 1027.04 1027.23 1027.37 1027.44 1027.44 1027.35 1027.17 1026.90 1026.56 1026.15 1025.69 1025.19 1024.66
1008.47 1009.20 1010.03 1010.93 1011.86 1012.81 1013.75 1014.65 1015.52 1016.34 1017.12 1017.87 1018.59 1019.29 1019.98 1020.66 1021.33 1021.97 1022.60 1023.20 1023.76 1024.29 1024.78 1025.23 1025.64 1026.01 1026.35 1026.65 1026.92 1027.14 1027.31 1027.43 1027.49 1027.48 1027.39 1027.22 1026.98 1026.68 1026.31 1025.90 1025.44 1024.97 1024.48
1008.15 1008.87 1009.67 1010.52 1011.41 1012.31 1013.20 1014.07 1014.92 1015.75 1016.55 1017.32 1018.09 1018.85 1019.60 1020.35 1021.08 1021.80 1022.50 1023.18 1023.81 1024.41 1024.96 1025.46 1025.92 1026.32 1026.67 1026.96 1027.20 1027.37 1027.49 1027.53 1027.51 1027.41 1027.25 1027.02 1026.73 1026.39 1026.01 1025.60 1025.17 1024.74 1024.30
1007.91 1008.63 1009.40 1010.22 1011.07 1011.93 1012.79 1013.64 1014.48 1015.31 1016.12 1016.94 1017.75 1018.56 1019.36 1020.17 1020.96 1021.74 1022.49 1023.22 1023.90 1024.54 1025.13 1025.66 1026.13 1026.54 1026.89 1027.16 1027.36 1027.50 1027.55 1027.53 1027.44 1027.28 1027.05 1026.77 1026.44 1026.08 1025.70 1025.32 1024.92 1024.53 1024.15
1007.76 1008.47 1009.24 1010.04 1010.85 1011.68 1012.51 1013.35 1014.18 1015.02 1015.86 1016.71 1017.57 1018.42 1019.28 1020.13 1020.97 1021.79 1022.57 1023.32 1024.03 1024.68 1025.28 1025.81 1026.28 1026.68 1027.01 1027.26 1027.43 1027.52 1027.52 1027.45 1027.31 1027.10 1026.83 1026.52 1026.17 1025.81 1025.44 1025.08 1024.73 1024.40 1024.08
Thickness
5709 5707 5705 5704 5703 5702 5700 5698 5697 5696 5694 5693 5691 5689 5687 5685 5684 5682 5681 5680 5678 5677 5677 5676 5674 5674 5672 5672 5671 5669 5667 5664 5657 5657 5659 5659 5658 5656 5654 5653 5651 5649 5647
5709 5707 5705 5703 5702 5700 5698 5698 5697 5695 5694 5693 5691 5688 5686 5684 5683 5681 5678 5678 5676 5675 5674 5673 5672 5672 5670 5669 5667 5665 5664 5662 5658 5654 5654 5654 5654 5653 5651 5649 5648 5645 5643
5709 5706 5704 5702 5700 5698 5697 5697 5695 5694 5692 5691 5690 5687 5685 5683 5681 5680 5678 5676 5675 5674 5673 5671 5670 5669 5666 5665 5664 5662 5661 5660 5658 5653 5650 5651 5650 5650 5647 5645 5644 5641 5639
5709 5705 5702 5701 5699 5697 5696 5695 5694 5692 5691 5689 5688 5686 5684 5682 5680 5678 5677 5675 5674 5673 5672 5670 5668 5667 5664 5663 5661 5659 5658 5655 5653 5650 5647 5646 5645 5645 5643 5639 5636 5636 5635
5708 5703 5701 5700 5698 5696 5694 5693 5691 5690 5689 5687 5685 5684 5682 5680 5678 5676 5674 5673 5671 5670 5669 5667 5666 5664 5662 5660 5658 5655 5653 5650 5648 5645 5642 5641 5640 5638 5636 5635 5631 5630 5629
5707 5703 5700 5698 5696 5693 5691 5690 5688 5687 5686 5684 5682 5680 5678 5677 5675 5674 5671 5670 5668 5666 5664 5663 5662 5660 5659 5657 5655 5653 5651 5647 5644 5641 5638 5636 5635 5634 5632 5630 5626 5623 5620
5705 5702 5699 5696 5693 5691 5689 5687 5684 5683 5682 5680 5678 5677 5674 5673 5672 5670 5669 5666 5665 5663 5662 5660 5659 5658 5656 5653 5651 5650 5647 5646 5643 5639 5636 5633 5631 5630 5628 5624 5621 5617 5615
5703 5700 5697 5694 5691 5689 5686 5683 5681 5680 5678 5677 5675 5674 5671 5669 5668 5666 5665 5663 5661 5660 5659 5657 5655 5653 5652 5650 5648 5645 5642 5641 5639 5637 5634 5632 5630 5627 5624 5620 5617 5614 5612
5700 5698 5695 5692 5689 5685 5682 5680 5679 5677 5676 5674 5673 5671 5668 5666 5664 5662 5660 5658 5657 5656 5656 5654 5652 5649 5647 5645 5642 5639 5637 5635 5634 5633 5631 5629 5626 5623 5619 5615 5610 5606 5603
5697 5696 5694 5691 5687 5684 5681 5678 5677 5675 5673 5672 5670 5668 5666 5663 5661 5658 5656 5654 5652 5651 5650 5649 5647 5644 5642 5639 5636 5634 5630 5629 5628 5626 5624 5622 5619 5617 5613 5609 5605 5599 5596
5695 5693 5690 5688 5685 5682 5679 5677 5674 5672 5670 5668 5666 5664 5663 5661 5657 5655 5652 5649 5648 5646 5645 5643 5641 5639 5637 5635 5632 5628 5626 5624 5621 5619 5616 5613 5611 5609 5606 5602 5599 5595 5589
5692 5688 5686 5684 5682 5680 5676 5673 5671 5668 5664 5662 5660 5658 5658 5656 5654 5650 5648 5645 5644 5642 5640 5638 5635 5634 5631 5629 5625 5623 5621 5618 5614 5611 5608 5605 5602 5600 5598 5596 5592 5589 5585
5686 5683 5681 5679 5677 5674 5671 5667 5665 5662 5659 5657 5655 5653 5652 5652 5650 5647 5644 5641 5639 5636 5634 5632 5630 5627 5624 5621 5618 5616 5613 5609 5606 5602 5599 5597 5596 5594 5591 5588 5585 5581 5578
5679 5677 5675 5672 5670 5668 5665 5662 5659 5656 5653 5652 5650 5648 5647 5645 5643 5641 5638 5635 5633 5630 5627 5624 5622 5619 5616 5614 5611 5608 5605 5602 5598 5595 5592 5590 5588 5585 5582 5578 5575 5572 5568
5673 5670 5669 5666 5663 5661 5658 5656 5654 5652 5651 5647 5645 5644 5642 5639 5638 5636 5633 5630 5627 5624 5620 5617 5613 5610 5608 5605 5603 5600 5598 5595 5591 5588 5585 5582 5579 5576 5572 5570 5566 5562 5558
5665 5664 5662 5660 5657 5655 5651 5648 5647 5646 5645 5644 5642 5639 5638 5636 5633 5630 5627 5624 5621 5618 5614 5610 5607 5604 5601 5599 5596 5593 5590 5587 5584 5581 5577 5573 5569 5566 5563 5560 5557 5553 5549
5659 5657 5655 5653 5651 5648 5646 5643 5638 5636 5636 5635 5634 5633 5631 5628 5626 5623 5619 5616 5613 5610 5605 5603 5600 5597 5595 5592 5589 5586 5583 5580 5577 5573 5569 5565 5561 5558 5554 5551 5547 5544 5540
5651 5650 5648 5645 5643 5642 5641 5639 5636 5632 5628 5626 5625 5623 5622 5620 5617 5614 5610 5607 5603 5600 5597 5595 5593 5591 5589 5586 5583 5580 5576 5573 5569 5565 5561 5557 5553 5549 5546 5542 5538 5534 5530
5642 5640 5639 5637 5636 5635 5634 5632 5629 5627 5623 5620 5617 5614 5612 5609 5606 5603 5601 5598 5595 5592 5590 5588 5586 5584 5582 5579 5577 5573 5570 5566 5562 5557 5553 5549 5545 5541 5537 5533 5529 5525 5521
5633 5632 5630 5629 5627 5626 5626 5624 5621 5618 5616 5613 5610 5607 5603 5599 5596 5593 5591 5590 5588 5586 5583 5581 5579 5577 5575 5572 5569 5565 5562 5558 5554 5550 5546 5541 5537 5532 5528 5524 5520 5516 5512
5625 5624 5622 5620 5619 5618 5617 5615 5613 5611 5608 5606 5603 5601 5598 5594 5591 5588 5585 5583 5581 5579 5577 5575 5573 5570 5568 5565 5561 5558 5554 5550 5546 5542 5538 5534 5529 5524 5520 5516 5512 5508 5503
5616 5615 5613 5611 5609 5608 5607 5606 5605 5603 5601 5598 5595 5593 5590 5587 5584 5582 5580 5578 5575 5574 5572 5569 5566 5563 5560 5557 5553 5549 5545 5541 5538 5534 5530 5526 5521 5517 5512 5508 5504 5499 5495
5607 5605 5604 5602 5601 5600 5598 5597 5596 5594 5592 5590 5588 5585 5582 5579 5577 5575 5572 5570 5569 5566 5564 5561 5559 5556 5553 5549 5546 5542 5538 5534 5530 5526 5521 5517 5513 5508 5504 5500 5496 5491 5486
5597 5595 5594 5593 5591 5590 5589 5588 5587 5586 5584 5581 5579 5577 5574 5572 5569 5567 5565 5563 5561 5559 5556 5554 5551 5548 5545 5541 5538 5534 5530 5526 5522 5518 5514 5509 5505 5500 5496 5491 5487 5483 5479
5587 5585 5584 5583 5582 5581 5580 5578 5577 5576 5574 5572 5570 5568 5566 5564 5561 5559 5556 5554 5552 5550 5548 5546 5543 5541 5537 5534 5530 5527 5523 5519 5515 5510 5506 5502 5497 5493 5488 5484 5479 5475 5471
5577 5576 5574 5573 5572 5571 5569 5568 5568 5566 5565 5563 5561 5559 5557 5555 5553 5551 5549 5546 5544 5542 5540 5538 5535 5533 5530 5526 5523 5519 5515 5512 5507 5503 5499 5495 5490 5486 5481 5477 5473 5468 5464